www.pogodaiklimat.ru

АРХИВ ПОГОДЫ в Джексоне

Время (UTC), дата Ветер
(напр.,м/с)
 
Видим.   Явления Облачность Т
(С)
Тd
(С)
f
(%)
Тe
(С)
Тes
(С)
Комфортность

P
(гПа)

Po
(гПа)
Тmin
(С)
Tmax
(С)
R
(мм)
SD
(см)
00:54 27.09 штиль  16 км    10/10 0 м
[средняя] 
0.0  0.0  100  -1  -1    1016.7  1004.5  +21.7  +22.8     
01:54 27.09 ЮВ  16 км    10/10 0 м
[средняя] 
0.0  0.0  100  -5  -5    1015.9  1003.5  +21.7  +22.8     
02:54 27.09 Ю  16 км    10/10 0 м
[средняя] 
0.0  0.0  100  -5  -5    1015.9  1003.5  +21.7  +22.8     
03:33 27.09 С  16 км    10/10 0 м  0.0  0.0  100  -3  -3    1015.7  1003.5  +21.7  +22.8     
04:54 27.09 В  16 км    10/10 0 м  0.0  0.0  100  -3  -3    1014.6  1002.2  +21.7  +22.8     
05:47 27.09 ЮВ  16 км    10/10 0 м  0.0  0.0  100  -5  -5    1014.3  1001.9  +21.7  +22.2  14.2   
06:54 27.09 Ю  11 км    10/10 0 м  0.0  0.0  100  -5  -5    1014.2  1001.9  +21.7  +22.2  14.2   
07:41 27.09 Ю  3 км    10/10 0 м  0.0  0.0  100  -3  -3    1014.0  1001.9  +21.7  +22.2  14.2   
08:54 27.09 штиль  2 км    ?/?  0.0  0.0  100  -1  -1    1014.5  1002.2  +21.7  +22.2  14.2   
09:54 27.09 штиль  2 км    ?/?  0.0  0.0  100  -1  -1    1014.5  1002.2  +21.7  +22.2  14.2   
10:23 27.09 ЮВ  5 км    10/10 0 м  0.0  0.0  100  -3  -3    1014.6  1002.2  +21.7  +22.2  14.2   
11:41 27.09 Ю  3 км    10/10 м
[средняя] 
0.0  0.0  100  -5  -5    1014.8  1002.5  +21.7  +26.1  27.2   
13:29 27.09 З  11 км    10/10 м
[средняя] 
+23.0  +23.0  100  +32  +32  очень
душно 
1015.4  1002.9  +21.7  +26.1  27.2   
14:23 27.09 ЮЗ  16 км    10/10 м
[средняя] 
+24.0  +23.0  94  +32  +32  очень
душно 
1015.5  1003.2  +21.7  +26.1  27.7   
15:23 27.09 СЗ  16 км    10/10 м
[средняя] 
+26.0  +23.0  84  +35  +35  очень
душно 
1015.4  1003.2  +21.7  +26.1  27.7   
16:54 27.09 нст  16 км    10/10 м
[средняя] 
+25.0  +21.1  79  +32  +32  очень
душно 
1015.0  1002.5  +21.7  +26.1  27.7   
17:54 27.09 СЗ  16 км    10/10 м
[средняя] 
+26.0  +21.0  74  +33  +33  очень
душно 
1014.7  1002.5  +20.6  +25.6  0.3   
18:54 27.09 СЗ  16 км    10/10 м
[средняя] 
+26.0  +21.0  74  +33  +33  очень
душно 
1014.2  1001.9  +20.6  +25.6  0.3   
19:54 27.09 СЗ  16 км    10/10 м  +23.9  +20.0  79  +29  +29  душно  1014.2  1001.9  +20.6  +25.6  0.3   
20:54 27.09 СЗ  16 км    10/10 м  +22.0  +19.0  83  +27  +27  душно  1014.6  1002.5  +20.6  +25.6  0.3   
21:42 27.09 СЗ  16 км    10/10 м  +21.0  +19.0  88  +26  +26  душно  1015.1  1002.9  +20.6  +25.6  0.3   
22:28 27.09 СЗ  16 км    10/10 м  +21.0  +19.0  88  +26  +26  душно  1015.6  1003.2  +20.6  +25.6  0.3   
23:35 27.09 СЗ  16 км    10/10 м  +20.0  +19.0  94  +23  +23  комфорт  1016.2  1003.9  +18.3  +20.6  0.3   
00:54 28.09 С  10 км    10/10 м  +19.0  +18.0  94  +21  +21  комфорт  1016.9  1004.5  +18.3  +20.6  0.3   
01:32 28.09 С  16 км    10/10 м  +19.0  +18.0  94  +21  +21  комфорт  1017.1  1004.5  +18.3  +20.6  0.3   
02:54 28.09 С  16 км    10/10 м  +18.0  +17.0  94  +18  +18    1017.0  1004.5  +18.3  +20.6  0.3   
03:20 28.09 СЗ  16 км    10/10 м  +18.0  +17.0  94  +18  +18    1017.0  1004.9  +18.3  +20.6  0.3   
04:54 28.09 СЗ  16 км    10/10 м  +18.9  +16.7  87  +21  +21  комфорт  1016.9  1004.5  +18.3  +20.6  0.3   
05:54 28.09 штиль  16 км    10/10 м  +19.0  +17.0  88  +20  +20    1017.3  1004.9  +18.3  +18.9  0.3   
06:54 28.09 штиль  16 км    10/10 м  +19.0  +17.0  88  +20  +20    1017.3  1004.9  +18.3  +18.9  0.3   
07:54 28.09 штиль  16 км    10/10 м  +18.9  +17.2  90  +20  +20    1017.7  1005.2  +18.3  +18.9  0.3   
08:23 28.09 Ю  16 км    10/10 м  +18.0  +17.0  94  +18  +18    1018.4  1005.6  +18.3  +18.9  0.3   
09:54 28.09 С  16 км    10/10 м  +19.0  +17.0  88  +21  +21  комфорт  1018.9  1006.6  +18.3  +18.9  0.3   
10:54 28.09 СЗ  11 км    10/10 м  +18.3  +17.2  93  +19  +19    1019.3  1006.9  +18.3  +18.9  0.3   
11:54 28.09 штиль  16 км    10/10 м  +19.0  +17.0  88  +20  +20    1019.6  1007.2  +18.3  +21.7  0.3   
12:54 28.09 С  16 км    10/10 м  0.0  0.0  100  -5  -5    1019.9  1007.6  +18.3  +21.7  0.3   
13:13 28.09 СЗ  16 км    10/10 м  0.0  0.0  100  -5  -5    1020.6  1007.9  +18.3  +21.7  0.3   
14:21 28.09 С  16 км    10/10 м  +20.0  +17.0  83  +23  +23  комфорт  1020.6  1008.2  +18.3  +21.7  0.3   
15:54 28.09 В  16 км    10/10 м  +21.0  +18.0  83  +26  +26  душно  1020.6  1008.2  +18.3  +21.7  0.3   
16:54 28.09 штиль  16 км    10/10 м  +21.1  +17.8  81  +25  +25  комфорт  1020.3  1007.9  +18.3  +21.7  0.3   
17:11 28.09 СВ  16 км  гроза  10/10 м  +22.0  +18.0  78  +27  +27  душно  1019.9  1007.6  +21.1  +23.3  0.3   
18:54 28.09 В  16 км    10/10 м  +22.0  +18.0  78  +27  +27  душно  1019.6  1007.2  +21.1  +23.3  0.3   
19:54 28.09 штиль  16 км    10/10 м  +22.8  +17.8  73  +28  +28  душно  1019.5  1007.2  +21.1  +23.3  0.3   
20:54 28.09 штиль  16 км    10/10 м  +23.0  +18.0  73  +28  +28  душно  1019.4  1007.2  +21.1  +23.3  0.3   
21:54 28.09 С  16 км    10/10 м  +22.0  +18.0  78  +27  +27  душно  1019.9  1007.6  +21.1  +23.3  0.3   
22:54 28.09 штиль  16 км    10/10 м  +21.7  +19.4  87  +27  +27  душно  1020.4  1007.9  +21.1  +23.3  0.3   
23:33 28.09 СВ  16 км    5/5 м  +20.0  +19.0  94  +24  +24  комфорт  1020.3  1007.9  +17.2  +21.7  0.3   
00:54 29.09 штиль  16 км    2/2 м  +19.0  +18.0  94  +21  +21  комфорт  1020.7  1008.2  +17.2  +21.7  0.3   

 

Местоположение метеостанции Jackson International Airport: широта 32.3197 долгота -90.0775 высота над уровнем моря 105 м.

В архиве по умолчанию представлена погода в Джексоне за последние 1-2 суток. Обновление информации о фактической погоде в базе происходит ежечасно! Архивные данные за месяц целиком и за предыдущие месяцы Вы можете получить, выбрав интересующий диапазон дат из раскрывающегося списка и нажав кнопку "Ввод!".

Внимание! Архив погоды МЕТАР в базе сайта в настоящее время начинается c 1 января 2013 г. Нет смысла пытаться выбрать более раннюю дату.

Внимание! Время в таблицах - всемирное. Для получения местного времени необходимо прибавить поправку, которая в Джексоне равна -6 ч.

Ветер - указаны скорость ветра в м/с и направление, откуда дует ветер: С - северный, СВ - северо-восточный, В - восточный, ЮВ - юго-восточный, Ю - южный, ЮЗ - юго-западный, З - западный, СЗ - северо-западный.
Видимость - горизонтальная дальность видимости в метрах или километрах. При видимости от 1 до 10 км при отсутствии осадков обычно наблюдается дымка, при ухудшении видимости до 1 км и менее - туман. В сухую погоду видимость может ухудшаться дымом, пылью или мглою.
Атмосферные явления - указаны явления, наблюдавшиеся в указанный момент времени.
Облачность - указаны через наклонную черту верхняя и нижняя облачность в баллах и высота нижней границы облаков в метрах. Внимание: облачность, как и прочие метеорологические величины в США измеряются автоматическими метеостанциями. Указанные значения в баллах носят условный характер и показывают процент времени, в течение которого, в среднем, лазерный луч высотомера отражался от облаков обратно.
T - Температура воздуха - температура, измеренная на высоте 2 м над землей.
Td - Температура точки росы - температура, при понижении до которой содержащийся в воздухе водяной пар достигнет насыщения.
f - Относительная влажность воздуха - влажноcть воздуха, измеренная на высоте 2 м над землей.
Te - Эффективная температура - температура, которую ощущает одетый по сезону человек в тени. Характеристика душности погоды. При расчете учитывается влияние влажности воздуха и скорости ветра на теплоощущения человека.
Tes - Эффективная температура на солнце - температура, которую ощущает человек, с поправкой на солнечный нагрев. Характеристика знойности погоды. Зависит от высоты солнца над горизонтом, облачности и скорости ветра. Ночью, в пасмурную погоду, а также при ветре 12 м/с и более поправка равна нулю.
P - Атмосферное давление - приведенное к уровню моря атмосферное давление.
Po - Атмосферное давление - измеренное на уровне метеостанции атмосферное давление.
Tmin - Минимальная температура - минимум температуры воздуха на высоте 2 м над землей.
Tmax - Максимальная температура - максимум температуры воздуха на высоте 2 м над землей.
R - Количество осадков - Количество выпавших осадков за 3 или 6 часов, мм.
SD - Снежный покров - Высота снежного покрова, см.